Simultaneous Nadir Overpasses (SNOs) Predictions

Prediction of SNOs between GOES-16 and NOAA-19 Satellite Orbit:

Table of predicted SNOs for the next 14.0 days since TLE Epoch: 10/17/2020
Index Date Time (GOES-16) GOES-16 Lat,Lon NOAA-19 Lat,Lon Distance(km) Time Diff (sec)
1 10/17/2020 11:19:03 -0.03, -75.19 0.10, -75.84 73.31 80
2 10/18/2020 11:04:40 -0.03, -75.19 -0.54, -72.97 252.91 80
3 10/20/2020 23:25:47 0.02, -75.17 -0.60, -77.97 318.33 80
4 10/21/2020 23:16:44 0.02, -75.17 0.04, -75.10 8.24 80
5 10/22/2020 23:05:02 0.02, -75.18 0.68, -72.24 334.95 80
6 10/25/2020 11:25:50 -0.01, -75.20 0.44, -77.16 223.02 80
7 10/26/2020 11:11:27 -0.01, -75.21 -0.20, -74.29 104.36 80
8 10/27/2020 10:59:46 -0.01, -75.22 -0.90, -71.44 431.86 80
9 10/28/2020 23:32:34 0.01, -75.23 -0.91, -79.29 463.30 80
10 10/29/2020 23:20:52 0.01, -75.24 -0.26, -76.43 135.22 80
11 10/30/2020 23:11:49 0.01, -75.26 0.39, -73.57 193.00 80
